St. Joseph, KS

5:19 AM CST on December 16, 2019 (GMT -0600)
Rosecrans Memorial

Weather History for KSTJ - November, 2019

Change the Weather History Date:

Thursday, November 21, 2019

  Actual Average Record
Temperature  
Mean Temperature 48 °F 39 °F  
Max Temperature 60 °F 50 °F 75 °F (1966)
Min Temperature 35 °F 29 °F 4 °F (1937)
Degree Days  
Heating Degree Days 17 26  
Month to date heating degree days 528 439  
Since 1 July heating degree days 977 858  
Cooling Degree Days 0 0  
Month to date cooling degree days 0 0  
Year to date cooling degree days 1466 1220  
Moisture  
Dew Point 39 °F    
Average Humidity 83    
Maximum Humidity 93    
Minimum Humidity 72    
Precipitation  
Precipitation 0.00 in 0.04 in 1.10 in (1934)
Month to date precipitation 0.08 1.19  
Year to date precipitation 36.97 33.72  
Sea Level Pressure  
Sea Level Pressure 29.98 in    
Wind  
Wind Speed 16 mph (NW)    
Max Wind Speed 25 mph    
Max Gust Speed 35 mph    
Visibility 10 miles    
Events      
T = Trace of Precipitation, MM = Missing Value Source: NWS Daily Summary

Daily Weather History Graph

Daily Weather History Graph

Search for Another Location

Airport or City:

Astronomy

Nov. 21, 2019 Rise Set
Actual Time 7:10 AM CST 4:59 PM CST
Civil Twilight 6:41 AM CST 5:29 PM CST
Nautical Twilight 6:08 AM CST 6:02 PM CST
Astronomical Twilight 5:36 AM CST 6:34 PM CST
Moon 1:08 AM CST (11/21) 2:28 PM CST (11/21)
Length of Visible Light 10h 47m
Length of Day
9h 49m
Waning Crescent, 29% of the Moon is Illuminated
Nov 21
Waning Crescent
Nov 26
New
Dec 4
First Quarter
Dec 11
Full
Dec 18
Last Quarter

Hourly Weather History & Observations

Time (CST) Temp. Windchill Dew Point Humidity Pressure Visibility Wind Dir Wind Speed Gust Speed Precip Events Conditions
12:53 AM 60.1 °F - 55.0 °F 83% 29.71 in 8.0 mi South 20.7 mph 28.8 mph N/A   Overcast
1:53 AM 59.0 °F - 55.9 °F 90% 29.69 in 9.0 mi South 13.8 mph 24.2 mph N/A   Overcast
2:24 AM 59.0 °F - 55.9 °F 90% 29.71 in 7.0 mi South 17.3 mph 26.5 mph N/A   Overcast
2:42 AM 57.9 °F - 55.9 °F 93% 29.71 in 8.0 mi South 15.0 mph - N/A   Overcast
2:53 AM 59.0 °F - 55.9 °F 90% 29.70 in 9.0 mi SSW 15.0 mph 24.2 mph N/A   Overcast
3:01 AM 59.0 °F - 55.9 °F 90% 29.72 in 10.0 mi SSW 15.0 mph 23.0 mph N/A   Overcast
3:25 AM 53.1 °F - 50.0 °F 89% 29.75 in 7.0 mi WNW 24.2 mph 35.7 mph N/A   Overcast
3:42 AM 50.0 °F - 46.0 °F 86% 29.77 in 10.0 mi WNW 18.4 mph 28.8 mph N/A   Overcast
3:53 AM 48.9 °F - 45.0 °F 86% 29.78 in 10.0 mi West 19.6 mph 28.8 mph N/A   Overcast
4:11 AM 48.0 °F - 44.1 °F 86% 29.80 in 9.0 mi West 13.8 mph - N/A   Overcast
4:53 AM 46.0 °F 41.0 °F 42.1 °F 86% 29.83 in 10.0 mi NW 10.4 mph - N/A   Overcast
5:32 AM 46.0 °F 41.0 °F 42.1 °F 86% 29.86 in 10.0 mi West 10.4 mph - N/A   Overcast
5:53 AM 46.0 °F 40.2 °F 41.0 °F 83% 29.87 in 10.0 mi WNW 12.7 mph - N/A   Overcast
6:53 AM 46.0 °F 39.3 °F 39.9 °F 79% 29.93 in 10.0 mi WNW 16.1 mph - N/A   Overcast
7:53 AM 45.0 °F 37.4 °F 39.0 °F 80% 29.96 in 10.0 mi NW 18.4 mph 26.5 mph N/A   Overcast
8:53 AM 43.0 °F 35.4 °F 37.0 °F 80% 30.00 in 10.0 mi NW 16.1 mph - N/A   Overcast
9:53 AM 43.0 °F 34.5 °F 36.0 °F 76% 30.03 in 10.0 mi NW 19.6 mph 25.3 mph N/A   Overcast
10:53 AM 43.0 °F 35.1 °F 36.0 °F 76% 30.05 in 10.0 mi NW 17.3 mph 25.3 mph N/A   Overcast
11:53 AM 42.1 °F 34.2 °F 36.0 °F 79% 30.06 in 10.0 mi NW 16.1 mph - N/A   Overcast
12:53 PM 42.1 °F 34.9 °F 35.1 °F 76% 30.05 in 10.0 mi NNW 13.8 mph - N/A   Overcast
1:53 PM 42.1 °F 33.3 °F 34.0 °F 73% 30.06 in 10.0 mi NNW 19.6 mph - N/A   Overcast
2:53 PM 39.9 °F 30.8 °F 33.1 °F 77% 30.09 in 10.0 mi North 18.4 mph - N/A   Overcast
3:53 PM 39.0 °F 29.3 °F 32.0 °F 76% 30.12 in 10.0 mi NNW 19.6 mph - N/A   Overcast
4:53 PM 37.9 °F 28.9 °F 30.9 °F 76% 30.16 in 10.0 mi NNW 16.1 mph - N/A   Overcast
5:53 PM 37.0 °F 27.4 °F 30.0 °F 76% 30.14 in 10.0 mi North 17.3 mph 28.8 mph N/A   Overcast
6:53 PM 37.0 °F 32.4 °F 30.0 °F 76% 30.20 in 10.0 mi North 5.8 mph - N/A   Overcast
7:53 PM 37.0 °F 29.3 °F 30.0 °F 76% 30.21 in 10.0 mi North 11.5 mph - N/A   Overcast
8:53 PM 37.0 °F 29.3 °F 28.9 °F 73% 30.22 in 10.0 mi North 11.5 mph - N/A   Overcast
9:53 PM 36.0 °F 26.3 °F 30.0 °F 79% 30.24 in 10.0 mi North 16.1 mph - N/A   Overcast
10:53 PM 35.1 °F 25.2 °F 28.9 °F 78% 30.23 in 10.0 mi North 16.1 mph - N/A   Overcast
11:12 PM 35.1 °F 26.4 °F 28.0 °F 76% 30.21 in 10.0 mi North 12.7 mph - N/A   Scattered Clouds
11:38 PM 35.1 °F 26.9 °F 28.9 °F 78% 30.21 in 10.0 mi North 11.5 mph - N/A   Mostly Cloudy
11:53 PM 35.1 °F 26.9 °F 28.9 °F 78% 30.24 in 10.0 mi North 11.5 mph - N/A   Overcast